Regional Weather Roundup
Issued by NWS

Home | Current Version | Previous Version | Graphics & Text | Print | Product List | Glossary Off
Versions: 1 2 3 4 5 6 7 8 9 10 11 12 13 14 15 16 17 18 19 20 21 22 23 24 25 26 27 28 29 30 31 32 33 34 35 36 37 38 39 40 41 42 43 44 45 46 47 48 49 50

000
ASUS43 KMPX 270310
RWRMN
WEATHER ROUNDUP FOR MINNESOTA
NATIONAL WEATHER SERVICE TWIN CITIES/CHANHASSEN MN
900 PM CST SUN FEB 26 2017


NOTE: "FAIR" INDICATES FEW OR NO CLOUDS BELOW 12,000 FEET WITH NO
SIGNIFICANT WEATHER AND/OR OBSTRUCTIONS TO VISIBILITY. N/A MEANS
CURRENT SKY AND/OR WEATHER CONDITIONS ARE NOT AVAILABLE.

MNZ060>063-068>070-270400-
   Twin Cities Metro

CITY           SKY/WX    TMP DP  RH WIND       PRES   REMARKS
TWIN CITIES    CLOUDY    30  12  47 CALM      29.95R
ST PAUL        MOCLDY    29  15  56 SW3       29.96R
CRYSTAL        FAIR      25  12  58 S3        29.93R
BLAINE         CLOUDY    28  10  47 CALM      29.92S
LAKEVILLE        N/A     28  19  69 CALM      29.95R
EDEN PRAIRIE   CLOUDY    29  18  63 SW3       29.94R
SOUTH ST PAUL  CLOUDY    30  15  52 CALM      29.95R
LAKE ELMO      MOCLDY    27  18  69 SW3       29.95R
$$
MNZ001>005-007-008-013>017-022>024-027-028-270400-
   Northwest Minnesota

CITY           SKY/WX    TMP DP  RH WIND       PRES   REMARKS
BEMIDJI        FAIR      11   4  73 SW3       29.86S
HALLOCK        CLOUDY    14  10  85 SW8       29.87R WCI   3
ROSEAU         FAIR      10   3  72 S8        29.85R WCI  -1
WARROAD        FAIR      10   5  79 SW8       29.85S WCI  -1
THIEF RVR FALL   N/A      8   5  87 S5        29.89S WCI   0
CROOKSTON      FAIR      12   9  85 CALM      29.91S
FOSSTON        FAIR       5   1  85 S6        29.88R WCI  -6
DETROIT LAKES  FAIR      14  12  92 CALM      29.88S
MOORHEAD       CLOUDY    18  10  73 SE3       29.91R
PARK RAPIDS    FAIR      14   4  64 CALM      29.86S
MAHNOMEN       FAIR      14  10  84 S3        29.87S
$$
MNZ006-009>011-018-025>026-270400-
   North Central Minnesota

CITY           SKY/WX    TMP DP  RH WIND       PRES   REMARKS
BAUDETTE       FAIR      11   2  67 SW8       29.84R WCI  -1
FLAG ISLAND    CLOUDY    14   7  73 SW13      29.82S WCI   0
INTL FALLS     FAIR      13   2  61 W8        29.85R WCI   2
WASKISH        FAIR      10   3  72 SW7       29.87S WCI   0
BIG FORK       FAIR       5  -2  72 CALM      29.86R
LONGVILLE      FAIR       7   1  78 CALM      29.88S
GRAND RAPIDS   FAIR       5  -1  76 CALM      29.89R
CRANE LAKE     FAIR       0  -2  92 CALM      29.88R
ORR            FAIR      12  -4  48 CALM      29.83R
COOK           FAIR       9   0  66 CALM      29.86R
WALKER         FAIR      13   2  61 CALM      29.87S
$$
MNZ012-019>021-037-270400-
   Northeast Minnesota

CITY           SKY/WX    TMP DP  RH WIND       PRES   REMARKS
DULUTH         FAIR      10   0  63 W3        29.87R
ELY            FAIR       1  -2  85 CALM      29.85R
HIBBING        FAIR       2  -3  80 CALM      29.86R
EVELETH        FAIR       3  -4  72 CALM      29.87S
DULUTH HARBOR  FAIR      18   3  53 CALM      29.94R
TWO HARBORS    FAIR      10   1  67 CALM      29.88R
SILVER BAY     FAIR       9   1  72 CALM      29.88R
GRAND MARAIS     N/A     13   2  61 W3        29.92R
G MARAIS ARPRT FAIR       7  -6  56 W5        29.82R WCI  -2
$$
MNZ029>031-032-039>041-046>048-054>057-064-270400-
   West Central Minnesota

CITY           SKY/WX    TMP DP  RH WIND       PRES   REMARKS
FERGUS FALLS   CLOUDY    18  10  73 CALM      29.94S
WHEATON        CLOUDY    19  12  73 E7        29.92S WCI  10
MORRIS         CLOUDY    21  16  79 S6        29.89R WCI  14
ALEXANDRIA     CLOUDY    20  11  68 E3        29.87S
ELBOW LAKE     CLOUDY    15   9  80 SE5       29.89S WCI   7
WADENA         FAIR       9   3  78 CALM      29.87F
GLENWOOD       FAIR      19  16  86 CALM      29.88S
APPLETON       CLOUDY    25  16  68 SE7       29.89F WCI  17
BENSON         CLOUDY    25  12  58 CALM      29.91F
ORTONVILLE       N/A     23  16  74 CALM      29.89S
MADISON        CLOUDY    27  21  80 E6        29.90S WCI  20
WILLMAR        CLOUDY    25  19  80 SE3       29.92S
$$
MNZ033>034-036-042>043-049>051-058-059-270400-
   Central Minnesota

CITY           SKY/WX    TMP DP  RH WIND       PRES   REMARKS
ST CLOUD       FAIR      23  15  71 CALM      29.91R
SAUK CENTRE    FAIR      21  12  68 CALM      29.89S
PAYNESVILLE    FAIR      22  16  75 CALM      29.91S
AITKIN         FAIR      10   3  72 SW3       29.89R
PINE RIVER     FAIR      12   7  79 CALM      29.92S
BRAINERD       FAIR      11   4  73 SW3       29.90S
STAPLES        FAIR       9   3  78 CALM      29.89S
LONG PRAIRIE   CLOUDY    19  10  68 CALM      29.88F
LITTLE FALLS   FAIR      21   9  58 CALM      29.90F
LITCHFIELD     MOCLDY    25  16  68 CALM      29.92S
BUFFALO        FAIR      25  15  66 S3        29.95R
MAPLE LAKE     FAIR      24  19  83 CALM      29.93S
HUTCHINSON     CLOUDY    28  21  76 CALM      29.94S
$$
MNZ037-044-045-052-053-270400-
   East Central Minnesota

CITY           SKY/WX    TMP DP  RH WIND       PRES   REMARKS
PRINCETON      CLOUDY    25  16  68 CALM      29.91S
MORA           FAIR      18  10  73 CALM      29.93S
CAMBRIDGE      FAIR      23   9  54 CALM      29.91S
RUSH CITY      FAIR      18  10  73 CALM      29.94R
MOOSE LAKE     FAIR      10   1  67 CALM      29.89S
HINCKLEY       FAIR      19  10  68 CALM      29.92R
CLOQUET        FAIR       9   1  72 W5        29.89R WCI   0
MCGREGOR       FAIR       9   3  78 CALM      29.89S
$$
MNZ071>073-080-081-089-090-097-098-270400-
   Southwest Minnesota

CITY           SKY/WX    TMP DP  RH WIND       PRES   REMARKS
MONTEVIDEO     MOCLDY    25  19  80 SE6       29.92F WCI  18
GRANITE FALLS  MOCLDY    29  22  76 E5        29.92S WCI  24
CANBY          FAIR      28  23  79 CALM      29.89F
MARSHALL       FAIR      28  21  75 S8        29.91R WCI  20
REDWOOD FALLS  CLOUDY    29  19  66 E5        29.92R WCI  24
OLIVIA         FAIR      28  21  74 E3        29.91S
PIPESTONE      FAIR      28  23  80 SW12      29.87R WCI  18
WINDOM         FAIR      30  27  86 S6        29.91R WCI  24
WORTHINGTON    FAIR      28  25  88 S13       29.91R WCI  17
JACKSON        FAIR      28  25  86 S8        29.93R WCI  20
TRACY          FAIR      28  24  86 S3        29.90S
SLAYTON        FAIR      29  26  86 S10       29.90R WCI  20
$$
MNZ065>067-074>077-082>085-091>093-270400-
   South Central Minnesota

CITY           SKY/WX    TMP DP  RH WIND       PRES   REMARKS
MANKATO          N/A     29  22  75 CALM      29.96R
NEW ULM        FAIR      27  19  74 SE6       29.92F WCI  20
ST JAMES       FAIR      30  28  93 CALM      29.95R
FAIRMONT       FAIR      27  23  85 SW9       29.95R WCI  18
GLENCOE        CLOUDY    30  24  77 CALM      29.93S
FARIBAULT      CLOUDY    28  21  74 S3        29.95S
OWATONNA       MOCLDY    27  21  80 CALM      29.95R
WASECA         FAIR      23  21  93 S7        29.96S WCI  15
ALBERT LEA     FAIR      25  21  86 SW5       29.95R WCI  19
$$
MNZ078>079-086>088-094>096-270400-
   Southeast Minnesota

CITY           SKY/WX    TMP DP  RH WIND       PRES   REMARKS
ROCHESTER      FAIR      19  17  92 SW9       29.95R WCI   8
RED WING       MOCLDY    25  16  68 CALM      29.96R
STANTON        CLOUDY    29  21  71 S3        29.95R
WINONA         FAIR      30  23  74 W6        29.99R WCI  24
AUSTIN         FAIR      16  12  86 SE3       29.96R
PRESTON        FAIR      24  20  84 SW8       29.97R WCI  15
$$
ABBREVIATIONS USED IN REMARKS
   TC - TEMPERATURES IN CELSIUS
  WCI - WIND CHILL INDEX
   HX - HEAT INDEX
  VSB - VISIBILITY
$$




USA.gov is the U.S. government's official web portal to all federal, state and local government web resources and services.